Wind_Speed
27 23 22 22 21 21 22 23 24 23 23 23 20 17 16 17 16 16 16 15 13 12 12 12 12 12 12 12 13 13 13 14 15 15 16 17 18 18 19 19 20 20 20 20
29 27 25 23 23 23 24 23 24 24 24 24 22 22 21 21 21 19 19 17 16 15 15 15 14 14 14 14 15 15 15 15 16 16 17 18 18 19 20 20 21 22 21 21
29 28 26 27 25 24 24 25 26 26 25 23 24 25 25 25 24 21 21 21 20 19 18 18 17 17 17 16 17 17 17 17 17 18 18 19 20 20 21 22 22 23 23 23
29 27 29 28 26 25 24 24 27 28 28 26 27 29 28 28 27 26 24 23 22 23 22 21 21 20 19 19 19 19 19 19 19 20 20 21 21 22 22 23 24 25 25 24
29 28 28 26 27 26 25 27 28 29 29 28 29 30 30 30 29 27 26 26 26 25 24 24 23 23 22 21 21 21 21 22 22 22 22 23 23 23 24 25 26 26 26 26
29 29 28 27 28 27 27 30 30 30 30 30 30 30 31 31 30 29 28 28 27 28 27 26 26 25 25 25 24 24 24 24 24 24 25 25 26 26 27 27 27 27 28 28
30 30 30 30 29 28 30 33 32 33 33 32 33 33 32 31 30 30 29 29 29 29 29 28 28 27 27 26 26 26 26 26 26 26 27 27 28 28 28 29 29 29 29 30
31 31 32 32 31 31 31 32 32 33 33 33 33 33 33 33 31 31 31 31 31 30 30 29 29 29 29 28 27 27 27 28 27 28 28 29 29 29 29 30 31 32 32 32
30 31 33 34 34 32 33 33 33 33 33 34 34 33 33 33 33 33 33 32 32 31 31 32 32 31 31 30 29 29 29 29 29 30 30 30 30 30 31 32 33 33 33 33
33 34 33 32 33 33 33 34 36 36 36 36 36 35 35 35 35 35 34 34 33 33 33 33 33 32 32 32 31 30 30 31 31 31 32 32 33 33 33 33 34 34 34 34
34 35 35 34 34 34 34 35 36 36 36 36 36 36 36 37 36 36 36 35 34 34 35 34 34 33 33 33 34 33 33 33 33 34 34 34 34 35 35 36 35 35 35 35
34 36 37 38 37 36 36 36 36 36 35 36 37 37 38 37 37 37 37 36 35 35 35 35 35 35 35 35 35 34 35 35 36 36 36 36 37 38 38 38 37 37 37 37
35 37 38 37 36 37 37 37 36 35 35 36 37 38 38 38 38 38 38 37 37 37 37 36 36 35 36 37 36 36 36 36 36 37 38 38 39 39 39 39 39 39 38 38
35 35 36 37 36 35 36 36 36 36 36 36 37 37 38 38 38 39 39 38 38 37 37 36 36 36 37 37 37 37 37 37 37 38 39 39 39 40 39 39 38 38 39 39
35 35 35 36 36 36 37 38 38 38 38 38 38 38 37 37 38 38 38 38 38 38 38 37 37 36 36 36 36 37 37 37 38 38 38 39 39 39 39 39 39 39 39 38
38 38 38 37 36 36 36 37 38 38 37 36 36 36 35 35 36 36 36 37 37 37 37 38 37 36 36 36 35 36 37 38 38 38 38 39 39 39 40 40 39 39 38 37
37 36 36 36 36 36 36 36 36 35 35 35 34 34 35 35 35 34 35 36 37 37 37 37 37 37 36 35 35 36 36 37 37 38 38 38 38 38 37 37 37 37 36 36
36 36 37 37 36 35 34 34 34 34 33 33 33 34 34 35 35 34 35 35 36 36 36 36 36 36 36 36 35 36 37 37 37 36 36 36 36 36 36 36 36 36 36 37
33 34 34 34 34 34 33 32 32 32 32 32 32 32 32 33 33 33 33 33 33 34 34 34 34 34 34 34 35 36 36 35 35 35 34 34 35 36 36 36 36 36 36 36
30 30 31 32 31 32 32 31 31 31 30 30 30 30 30 31 31 32 32 32 32 33 33 34 34 34 34 34 34 35 35 35 35 34 34 34 35 35 36 36 36 35 35 36
28 28 28 29 29 29 29 30 30 30 29 30 30 29 29 29 30 30 31 31 32 32 32 32 32 33 33 34 34 34 34 33 33 32 33 34 34 35 35 35 35 35 36 36
27 27 28 29 29 29 28 27 28 28 29 29 29 29 28 28 29 30 30 30 30 31 32 32 32 32 33 33 32 32 32 32 32 32 32 33 33 34 34 34 34 35 36 36
24 25 26 27 29 29 28 27 26 27 27 27 27 27 27 28 28 28 28 28 29 30 30 30 30 30 31 31 31 31 31 32 32 32 32 32 33 33 34 35 36 37 37 37
21 21 23 25 27 27 27 27 26 26 26 26 26 26 26 27 26 26 26 27 28 28 29 29 28 29 29 30 30 31 31 31 32 32 32 33 34 34 35 36 36 37 37 36
19 19 20 20 21 23 24 25 26 26 25 25 25 25 24 24 25 24 25 27 27 28 28 27 27 27 28 29 30 31 31 31 31 32 32 33 34 35 36 36 36 37 37 36
15 15 16 17 18 20 21 22 23 23 23 22 23 23 24 24 24 24 25 25 25 25 25 25 26 27 28 28 29 30 30 31 31 33 34 35 36 36 36 36 36 36 35 35
12 12 13 14 15 16 17 19 19 19 19 18 20 21 21 21 21 22 22 23 23 23 24 25 26 26 27 27 27 28 29 31 32 34 35 35 36 36 36 35 35 34 33 33
Wind_Direction
216 221 228 234 234 231 231 233 239 245 254 253 256 258 262 265 268 269 270 276 279 285 289 295 302 307 313 318 323 325 325 324 324 325 327 328 328 329 330 332 333 335 336 336
223 221 227 233 235 235 236 237 241 247 254 253 250 253 256 258 263 266 267 272 274 276 280 284 288 294 301 306 310 313 314 315 317 319 320 322 323 325 326 327 328 329 330 330
228 229 231 228 231 236 239 239 242 246 249 250 253 255 257 259 260 264 266 268 271 274 275 276 278 283 288 295 299 304 306 306 309 312 314 315 315 317 320 323 324 325 325 325
230 231 235 234 234 234 238 241 240 241 243 247 250 257 258 261 264 263 264 265 267 269 270 271 273 277 281 286 290 295 299 301 304 305 307 309 310 312 314 317 319 320 319 321
231 235 240 241 240 239 240 242 243 245 247 250 252 256 259 260 262 262 263 263 263 266 268 269 271 274 276 280 285 288 291 294 297 300 303 305 307 309 311 312 314 316 317 317
233 234 237 242 243 241 242 245 245 247 249 251 252 254 257 259 261 261 263 263 262 263 265 266 268 271 273 277 281 285 287 289 293 297 298 299 302 305 308 307 308 310 312 312
235 238 239 240 241 242 243 246 249 250 251 251 252 254 257 260 261 261 262 263 262 262 264 266 267 269 272 275 279 282 285 286 289 292 296 297 299 301 303 304 305 306 308 309
236 239 239 241 241 241 246 250 250 252 254 253 254 255 255 257 258 259 260 261 261 262 263 265 267 268 270 273 276 279 282 284 287 291 293 295 297 300 301 303 304 304 305 306
238 241 243 243 243 244 246 248 250 251 252 253 253 254 255 255 256 257 258 260 261 262 264 265 266 267 269 270 271 275 279 282 285 288 292 295 298 300 301 303 303 303 303 304
239 243 246 247 247 246 247 251 252 252 253 253 254 255 256 256 257 258 259 260 261 263 264 265 266 268 269 270 271 273 276 279 282 285 288 291 294 297 298 299 301 302 302 304
241 244 247 250 251 251 252 253 254 253 253 254 254 255 256 256 256 257 258 259 261 263 264 265 267 268 269 271 271 272 274 277 280 283 286 288 291 293 296 298 299 300 302 303
243 244 245 247 251 253 254 255 255 257 257 256 255 255 256 257 256 257 258 259 261 263 264 265 267 269 269 271 270 270 272 275 278 281 283 286 288 291 294 296 298 300 301 302
245 246 248 252 254 255 256 256 256 259 259 258 257 257 257 257 258 258 259 259 261 263 264 265 266 268 269 270 271 271 272 274 277 279 281 285 287 288 290 293 295 298 299 300
248 249 250 252 253 254 255 257 257 258 259 259 258 257 257 257 258 259 259 260 261 262 263 265 266 267 268 269 270 271 272 274 277 279 281 284 286 288 289 291 294 296 297 297
251 252 254 255 256 257 256 257 259 259 260 259 259 259 258 258 258 258 258 259 260 262 264 265 267 269 268 269 270 272 274 277 280 281 283 285 286 288 289 291 293 294 295 296
253 255 256 257 257 258 257 257 259 261 263 262 260 259 258 257 256 257 257 258 259 261 263 265 267 268 268 270 271 273 275 277 279 281 283 284 286 288 289 291 292 293 294 294
255 256 258 258 257 257 257 258 259 261 262 261 261 259 257 256 256 257 258 258 259 262 264 265 267 268 268 270 271 272 274 277 280 281 283 285 287 288 290 291 292 293 293 293
257 258 258 257 257 257 258 258 259 260 262 262 260 259 259 258 256 257 259 259 260 261 263 266 268 269 268 268 269 271 274 276 279 282 283 285 286 287 290 291 292 292 294 294
258 257 255 255 255 255 256 256 257 258 260 260 259 259 259 257 256 256 257 258 259 261 263 265 266 267 268 270 272 274 276 279 281 282 283 284 286 287 289 290 291 293 294 295
259 257 253 253 254 253 253 253 254 257 258 257 258 258 258 257 256 256 257 257 259 261 262 263 265 266 268 272 275 277 279 281 282 283 283 285 286 287 289 290 292 294 295 296
259 255 252 251 251 253 254 254 254 256 257 256 257 258 257 256 256 257 258 258 259 260 262 265 267 268 270 272 275 278 278 281 283 286 286 285 286 287 288 290 292 294 295 296
259 254 250 250 249 250 252 253 253 253 254 255 256 257 257 257 258 258 260 262 263 263 263 264 267 269 271 271 273 276 279 281 285 287 287 287 288 289 290 291 293 295 296 297
259 255 250 250 249 249 250 252 253 252 252 253 255 256 257 258 258 258 260 262 263 262 263 265 268 270 272 273 274 276 278 282 285 286 286 287 288 290 292 294 295 296 297 297
262 260 255 251 249 249 250 252 252 252 252 253 255 256 256 256 255 256 259 262 264 265 266 269 270 272 273 274 276 277 280 282 284 285 286 288 288 290 292 295 296 297 298 298
268 264 257 253 250 250 249 250 251 250 252 254 254 255 256 258 258 259 262 265 267 269 270 270 272 273 275 276 278 279 281 283 284 286 287 288 289 290 292 294 295 297 297 296
272 268 260 255 253 252 251 252 253 251 253 256 256 257 258 260 263 265 267 271 272 271 271 270 271 273 276 278 281 282 283 285 286 289 290 290 291 292 294 295 296 296 296 296
274 274 268 261 258 255 253 253 253 253 255 257 258 259 261 262 265 269 270 271 272 272 273 274 274 275 277 279 282 284 286 288 289 291 293 293 294 294 295 295 296 296 295 296
Height
5887 5891 5895 5897 5900 5903 5905 5907 5909 5910 5910 5910 5909 5909 5910 5910 5911 5912 5912 5912 5912 5913 5913 5913 5913 5912 5911 5910 5909 5908 5907 5906 5904 5902 5901 5899 5897 5894 5892 5890 5887 5885 5882 5879
5880 5884 5887 5891 5894 5897 5899 5901 5903 5904 5905 5905 5903 5905 5905 5907 5908 5908 5908 5909 5909 5909 5910 5911 5910 5910 5909 5908 5907 5906 5905 5903 5902 5900 5898 5896 5894 5892 5890 5887 5884 5882 5879 5877
5874 5878 5880 5884 5888 5891 5893 5895 5896 5897 5899 5899 5899 5898 5899 5901 5902 5903 5905 5905 5905 5906 5906 5907 5907 5906 5906 5905 5904 5903 5902 5901 5899 5897 5896 5894 5891 5889 5887 5884 5882 5879 5876 5873
5868 5872 5874 5880 5882 5884 5885 5887 5888 5889 5890 5891 5892 5893 5894 5896 5897 5898 5899 5900 5901 5901 5902 5902 5902 5902 5902 5901 5901 5900 5899 5897 5896 5894 5892 5890 5888 5885 5883 5881 5878 5875 5872 5870
5862 5865 5868 5872 5874 5877 5879 5880 5881 5882 5883 5885 5886 5887 5888 5889 5890 5892 5893 5894 5895 5896 5896 5897 5897 5897 5897 5896 5896 5895 5894 5893 5891 5890 5888 5886 5883 5881 5879 5876 5874 5871 5868 5866
5855 5858 5861 5865 5868 5869 5873 5872 5873 5875 5876 5878 5878 5880 5881 5882 5884 5885 5886 5888 5889 5890 5890 5891 5891 5891 5891 5891 5890 5890 5889 5887 5886 5885 5883 5881 5879 5876 5874 5871 5869 5866 5864 5861
5848 5850 5853 5856 5858 5861 5864 5863 5866 5867 5869 5870 5871 5873 5874 5875 5877 5878 5880 5881 5882 5883 5883 5884 5884 5884 5884 5884 5884 5883 5882 5881 5880 5879 5877 5875 5873 5871 5868 5866 5863 5861 5858 5855
5840 5843 5847 5847 5850 5853 5853 5855 5857 5858 5860 5861 5863 5864 5866 5867 5869 5871 5872 5873 5874 5875 5876 5877 5877 5877 5877 5877 5877 5876 5875 5874 5873 5872 5870 5868 5866 5864 5862 5859 5857 5854 5852 5849
5832 5835 5836 5838 5840 5842 5844 5846 5847 5849 5850 5852 5854 5855 5857 5859 5860 5862 5864 5865 5866 5867 5868 5868 5869 5868 5869 5869 5869 5868 5868 5867 5866 5864 5863 5861 5859 5857 5854 5852 5850 5847 5844 5842
5823 5825 5827 5829 5830 5832 5834 5836 5837 5839 5841 5842 5844 5846 5848 5850 5851 5853 5855 5856 5857 5858 5859 5860 5859 5859 5860 5860 5860 5860 5860 5859 5858 5857 5855 5854 5852 5849 5847 5844 5842 5839 5836 5834
5815 5817 5819 5820 5822 5824 5825 5826 5827 5828 5830 5832 5834 5837 5838 5840 5842 5843 5845 5847 5848 5849 5850 5850 5851 5851 5851 5851 5851 5851 5851 5850 5849 5848 5847 5845 5843 5841 5839 5836 5833 5830 5828 5825
5806 5808 5809 5811 5812 5814 5815 5817 5818 5819 5821 5822 5824 5826 5827 5829 5831 5833 5835 5837 5839 5839 5840 5841 5842 5842 5842 5842 5841 5841 5841 5840 5840 5839 5838 5836 5834 5833 5830 5828 5824 5821 5819 5817
5796 5798 5800 5802 5804 5804 5805 5807 5808 5809 5810 5812 5814 5815 5817 5819 5821 5823 5825 5827 5828 5830 5830 5831 5832 5832 5832 5832 5832 5831 5831 5831 5830 5829 5828 5826 5824 5823 5820 5818 5816 5813 5810 5808
5787 5789 5790 5792 5793 5795 5795 5795 5797 5799 5800 5801 5803 5805 5807 5809 5810 5812 5815 5817 5818 5819 5820 5821 5822 5822 5822 5822 5822 5821 5821 5820 5819 5818 5817 5816 5814 5812 5809 5808 5806 5804 5801 5798
5777 5779 5780 5782 5783 5783 5784 5786 5787 5789 5790 5791 5792 5794 5796 5798 5800 5802 5804 5806 5807 5808 5810 5810 5811 5811 5811 5811 5812 5811 5811 5810 5809 5808 5806 5805 5803 5801 5798 5797 5795 5793 5791 5788
5768 5769 5770 5771 5772 5772 5774 5776 5777 5779 5779 5780 5781 5783 5786 5787 5789 5791 5793 5795 5797 5798 5799 5800 5800 5801 5801 5801 5801 5801 5801 5800 5799 5797 5796 5795 5792 5790 5788 5786 5784 5781 5779 5777
5757 5759 5760 5761 5763 5763 5764 5766 5767 5768 5769 5770 5772 5774 5775 5777 5779 5781 5783 5785 5786 5787 5789 5790 5790 5790 5791 5791 5791 5791 5790 5790 5788 5787 5785 5784 5782 5779 5777 5775 5773 5771 5769 5766
5748 5749 5750 5751 5753 5754 5756 5757 5758 5759 5760 5761 5763 5764 5766 5768 5769 5772 5773 5775 5776 5777 5778 5779 5780 5780 5780 5781 5781 5780 5780 5779 5778 5776 5775 5773 5771 5769 5767 5765 5763 5760 5758 5756
5738 5739 5739 5741 5743 5745 5747 5748 5749 5750 5751 5753 5754 5755 5757 5758 5760 5762 5764 5765 5766 5768 5769 5769 5770 5770 5771 5771 5771 5770 5770 5768 5768 5766 5765 5763 5761 5760 5757 5755 5753 5750 5748 5746
5730 5730 5731 5733 5734 5735 5736 5738 5741 5742 5743 5744 5746 5747 5748 5750 5752 5753 5755 5756 5757 5758 5759 5760 5760 5761 5761 5761 5761 5761 5760 5759 5758 5756 5754 5753 5751 5750 5747 5745 5743 5740 5738 5736
5721 5721 5722 5724 5726 5727 5729 5731 5733 5735 5736 5737 5738 5739 5741 5742 5744 5745 5746 5747 5749 5749 5750 5751 5751 5752 5752 5752 5752 5751 5750 5749 5748 5747 5745 5743 5741 5739 5738 5735 5733 5731 5728 5725
5713 5713 5714 5716 5718 5721 5722 5724 5725 5727 5728 5729 5730 5732 5733 5735 5736 5737 5738 5739 5740 5740 5741 5742 5742 5743 5743 5743 5742 5742 5741 5740 5739 5737 5735 5733 5731 5730 5727 5725 5723 5720 5718 5715
5704 5705 5706 5708 5711 5713 5715 5716 5717 5719 5721 5722 5723 5724 5725 5727 5728 5729 5730 5731 5731 5732 5732 5733 5734 5734 5733 5733 5733 5732 5732 5731 5729 5728 5726 5724 5722 5720 5718 5715 5712 5710 5707 5705
5698 5699 5700 5701 5703 5705 5708 5709 5710 5712 5713 5714 5715 5716 5717 5718 5719 5720 5721 5722 5723 5724 5724 5725 5725 5725 5725 5724 5724 5723 5722 5721 5720 5718 5717 5715 5713 5710 5708 5705 5702 5700 5697 5694
5693 5693 5694 5695 5697 5698 5700 5702 5703 5704 5706 5706 5708 5708 5709 5710 5711 5713 5713 5714 5715 5715 5715 5716 5716 5716 5716 5716 5715 5714 5713 5712 5710 5709 5707 5705 5702 5700 5698 5695 5692 5689 5686 5683
5688 5689 5689 5690 5691 5693 5694 5696 5697 5698 5699 5699 5701 5702 5702 5703 5704 5705 5706 5706 5706 5707 5707 5707 5707 5707 5707 5707 5706 5705 5704 5703 5701 5699 5697 5695 5692 5690 5687 5684 5682 5679 5676 5672
5685 5685 5685 5686 5687 5688 5689 5689 5691 5692 5693 5693 5694 5695 5696 5696 5697 5698 5699 5699 5699 5699 5699 5699 5699 5699 5699 5698 5698 5697 5695 5694 5692 5689 5687 5684 5682 5679 5676 5674 5671 5668 5666 5662